User: anonymous   Login
Location: Bédeille
(43.0872°N, 1.1041°E)
Time: 21:53:18
(UTC+00:00)
Language:

PEGASUS DEB - Orbit

View from above orbital plane
View from above orbital plane
View from above satellite
View from above satellite

Ground track
Ground track

The orbit data is extracted from the following two-line orbital elements,

1 29033U 94029AEQ 24056.28685040  .00005514  00000-0  11110-2 0  9992
2 29033  81.9706  45.6443 0237296 152.7314 208.6576 14.45023324106142
Epoch (UTC): 25 February 2024 06:53:03
Eccentricity: 0.0237296
inclination: 81.9706°
perigee height: 573 km
apogee height: 911 km
right ascension of ascending node: 45.6443°
argument of perigee: 152.7314°
revolutions per day: 14.45023324
mean anomaly at epoch: 208.6576°
orbit number at epoch: 10614

The dashed part of the orbit path shows where the satellite is in the earth's shadow,  

DLR